This is the latest recevied weather packets stored in our database for station/object BG5HLN-13. If no packets are shown the sender has not sent any weather packets the latest 10 day(s).
| Time | Temp. | Humidity | Pressure | Rain* | Wind** | Luminosity | Snow |
|---|---|---|---|---|---|---|---|
| 1777889376 | 25° C | 52% | 1015.4 hPa | 0 mm | - | - | - |
| 1777889285 | 25° C | 51% | 1015.4 hPa | 0 mm | - | - | - |
| 1777888684 | 25° C | 52% | 1015.4 hPa | 0 mm | - | - | - |
| 1777888085 | 25° C | 52% | 1015.4 hPa | 0 mm | - | - | - |
| 1777887577 | 25.56° C | 51% | 1015.4 hPa | 0 mm | - | - | - |
| 1777887484 | 25.56° C | 51% | 1015.4 hPa | 0 mm | - | - | - |
| 1777886884 | 25.56° C | 51% | 1015.4 hPa | 0 mm | - | - | - |
| 1777886285 | 25.56° C | 51% | 1015.3 hPa | 0 mm | - | - | - |
| 1777885776 | 25.56° C | 50% | 1015.3 hPa | 0 mm | - | - | - |
| 1777885684 | 26.11° C | 49% | 1015.3 hPa | 0 mm | - | - | - |
| 1777885085 | 26.11° C | 49% | 1015.3 hPa | 0 mm | - | - | - |
| 1777884484 | 26.11° C | 51% | 1015.3 hPa | 0 mm | - | - | - |
| 1777883975 | 26.11° C | 51% | 1015.2 hPa | 0 mm | - | - | - |
| 1777883884 | 26.11° C | 51% | 1015.2 hPa | 0 mm | - | - | - |
| 1777883284 | 26.11° C | 49% | 1015.2 hPa | 0 mm | - | - | - |
| 1777882684 | 26.11° C | 52% | 1015.3 hPa | 0 mm | - | - | - |
| 1777882176 | 26.11° C | 50% | 1015.3 hPa | 0 mm | - | - | - |
| 1777882084 | 26.11° C | 50% | 1015.3 hPa | 0 mm | - | - | - |
| 1777881485 | 26.11° C | 47% | 1015.3 hPa | 0 mm | - | - | - |
| 1777880883 | 26.11° C | 45% | 1015.5 hPa | 0 mm | - | - | - |
| 1777880375 | 26.67° C | 50% | 1015.7 hPa | 0 mm | - | - | - |
| 1777880284 | 26.67° C | 49% | 1015.6 hPa | 0 mm | - | - | - |
| 1777879684 | 26.11° C | 49% | 1015.7 hPa | 0 mm | - | - | - |
| 1777879084 | 26.11° C | 47% | 1015.7 hPa | 0 mm | - | - | - |
| 1777878576 | 26.67° C | 52% | 1015.7 hPa | 0 mm | - | - | - |
* Rain latest hour (hover to see other rain measurements)
** Current wind speed in m/s (hover to see current wind gust speed)